Weather in Staroderevyankovskaya

Russia / Krasnodar Krai     46°07′37″N   38°58′28″E
temp.,
°C
wind,
m/s
gust,
m/s
humid.,
%
clouds,
%
prec.,
mm/h
press.,
hPa
HPBL,
m
21 april, wed
wed2100:00+10sw101677100 0.0 10101282
03:00+10sw81387100 0.0 1013981
06:00+9sw6129141 0.0 1015603
09:00+12wsw79765 0.0 1017789
12:00+15w686211 0.0 10181451
15:00+15w556142 0.1 10181292
18:00+13w357330 0.1 1019362
21:00+9wsw22865 0.1 102123
22 april, thu
thu2200:00+8sw33915 0.0 102139
03:00+7sw22936 0.0 102228
06:00+7sw2294100 0.0 102219
09:00+13w117728 0.0 1023424
12:00+16wnw1161100 0.1 10231349
15:00+17wsw3255100 0.2 10221693
18:00+13nw3578100 0.6 1022170
21:00+11nnw2284100 0.9 102341
23 april, fri
fri2300:00+9nnw11847 0.0 102310
03:00+7w22850 0.0 102310
06:00+7sw11840 0.0 102310
09:00+13ssw237117 0.0 1024442
12:00+16sw34610 0.0 10231341
15:00+17wsw345561 0.1 10211826
18:00+15wnw2374100 0.0 1020151
21:00+11wnw2373100 0.0 102041
24 april, sat
sat2400:00+11w2471100 0.0 1019103
03:00+9wsw398161 0.4 1019206
06:00+8sw310875 0.0 1018226
09:00+13wsw68735 0.0 1018762
12:00+15w796780 0.0 10191196
15:00+14w796921 0.3 10191212
18:00+11w57752 0.0 1019513
21:00+7w3108613 0.0 1021239
25 april, sun
sun2500:00+7wnw3983100 0.0 1021202
03:00+6wnw3669100 0.0 1022122
06:00+4nw237451 0.0 102256
09:00+9nw3361100 0.0 1022861
12:00+11nnw3353100 0.0 10211352
15:00+12n2251100 0.0 10201532
18:00+11n2368100 0.0 1020133
21:00+8nne2361100 0.0 102066